Corvallis, OR

12:41 PM PDT on July 26, 2017 (GMT -0700)
Corvallis Municipal

Weather History for KCVO - October, 2011

Change the Weather History Date:

Saturday, October 15, 2011

  Actual Average Record
Temperature  
Mean Temperature 50 °F -  
Max Temperature 53 °F 65 °F 82 °F (2002)
Min Temperature 48 °F 42 °F 28 °F (1999)
Degree Days  
Heating Degree Days 14    
Moisture  
Dew Point 50 °F    
Average Humidity 97    
Maximum Humidity 100    
Minimum Humidity 94    
Precipitation  
Precipitation 0.02 in - - ()
Sea Level Pressure  
Sea Level Pressure 30.00 in    
Wind  
Wind Speed 2 mph (WNW)    
Max Wind Speed 7 mph    
Max Gust Speed -    
Visibility 9 miles    
Events      
Averages and records for this station are not official NWS values.
T = Trace of Precipitation, MM = Missing Value Source: NWS Daily Summary

Daily Weather History Graph

Daily Weather History Graph

Search for Another Location

Airport or City:

Trip Planner

Search our weather history database for the weather conditions in past years. The results will help you decide how hot, cold, wet, or windy it might be!

Date:

Astronomy

Oct. 15, 2011 Rise Set
Actual Time 7:28 AM PDT 6:29 PM PDT
Civil Twilight 6:58 AM PDT 6:58 PM PDT
Nautical Twilight 6:25 AM PDT 7:32 PM PDT
Astronomical Twilight 5:51 AM PDT 8:05 PM PDT
Moon 8:20 PM PDT (10/15) 11:07 AM PDT (10/15)
Length of Visible Light 11h 59m
Length of Day
11h 00m
Waning Gibbous, 88% of the Moon is Illuminated
Oct 15
Waning Gibbous
Oct 19
Last Quarter
Oct 26
New
Nov 2
First Quarter
Nov 10
Full

Hourly Weather History & Observations

Time (PDT) Temp. Dew Point Humidity Pressure Visibility Wind Dir Wind Speed Gust Speed Precip Events Conditions
12:15 AM 53.6 °F 53.6 °F 100% 29.98 in 10.0 mi Calm Calm - N/A   Overcast
12:35 AM 53.6 °F 53.6 °F 100% 29.98 in 10.0 mi NW 3.5 mph - N/A   Overcast
12:55 AM 53.6 °F 53.6 °F 100% 29.99 in 10.0 mi WNW 5.8 mph - N/A   Overcast
1:15 AM 53.6 °F 51.8 °F 94% 29.99 in 10.0 mi Calm Calm - N/A   Mostly Cloudy
1:35 AM 51.8 °F 50.0 °F 94% 29.99 in 10.0 mi Calm Calm - N/A   Mostly Cloudy
1:55 AM 53.6 °F 51.8 °F 94% 29.98 in 10.0 mi Calm Calm - N/A   Mostly Cloudy
2:15 AM 51.8 °F 50.0 °F 94% 29.99 in 4.0 mi Calm Calm - N/A   Mostly Cloudy
2:35 AM 51.8 °F 50.0 °F 94% 29.99 in 10.0 mi Calm Calm - N/A   Mostly Cloudy
2:55 AM 51.8 °F 51.8 °F 100% 30.00 in 10.0 mi West 3.5 mph - N/A   Mostly Cloudy
3:15 AM 51.8 °F 50.0 °F 94% 30.00 in 10.0 mi WNW 3.5 mph - N/A   Partly Cloudy
3:35 AM 50.0 °F 48.2 °F 94% 30.00 in 8.0 mi WNW 4.6 mph - N/A   Scattered Clouds
3:55 AM 50.0 °F 50.0 °F 100% 30.00 in 10.0 mi WNW 3.5 mph - N/A   Partly Cloudy
4:15 AM 50.0 °F 50.0 °F 100% 30.00 in 9.0 mi WNW 4.6 mph - N/A   Clear
4:35 AM 50.0 °F 48.2 °F 94% 30.00 in 10.0 mi West 5.8 mph - N/A   Clear
4:55 AM 50.0 °F 48.2 °F 94% 30.00 in 10.0 mi West 5.8 mph - N/A   Clear
5:15 AM 50.0 °F 48.2 °F 94% 30.00 in 10.0 mi West 6.9 mph - N/A   Clear
5:35 AM 48.2 °F 48.2 °F 100% 30.01 in 8.0 mi WNW 4.6 mph - N/A   Clear
6:15 AM 48.2 °F 48.2 °F 100% 30.01 in 8.0 mi West 5.8 mph - N/A   Clear
6:35 AM 48.2 °F 48.2 °F 100% 30.01 in 8.0 mi West 4.6 mph - N/A   Clear
6:55 AM 48.2 °F 48.2 °F 100% 30.01 in 8.0 mi West 5.8 mph - N/A   Clear
7:15 AM 48.2 °F 48.2 °F 100% 30.01 in 7.0 mi Calm Calm - N/A   Clear
7:35 AM 48.2 °F 48.2 °F 100% 30.01 in 8.0 mi Calm Calm - N/A   Clear
8:15 AM 48.2 °F 48.2 °F 100% 30.02 in 3.0 mi Calm Calm - N/A   Clear
8:35 AM 48.2 °F 48.2 °F 100% 30.03 in 8.0 mi Calm Calm - N/A   Clear
8:55 AM 51.8 °F 50.0 °F 94% 30.03 in 10.0 mi Calm Calm - N/A   Clear